When you browse on this site, cookies collect data to enhance your experience and personalize the content and advertising you see.
Visit our Privacy Policy to learn more. By continuing to use the site, you agree to this use of cookies and data.
  • In Belgium
  • List of Countries
  • For 7 days
  • Water Temperature
  • Satellite Maps
  • Weather Map
  • Weather Widgets
  • user-avatar
    Login

    Hourly Weather Zareche

    Today, 23 March, Saturday

    Time Temperature Precipitation Wind Pressure Humidity
    00:00 -1°C° 0.2 mm 5 mps 748 mmHg 87%
    01:00 -1°C° 0.2 mm 5 mps 748 mmHg 88%
    02:00 -1°C° 0 mm 4 mps 749 mmHg 90%
    03:00 -1°C° 0 mm 4 mps 750 mmHg 90%
    04:00 -1°C° 0 mm 4 mps 751 mmHg 90%
    05:00 -1°C° 0 mm 4 mps 752 mmHg 90%
    06:00 0°C° 0 mm 3 mps 752 mmHg 91%
    07:00 0°C° 0 mm 3 mps 753 mmHg 91%
    08:00 0°C° 0 mm 3 mps 754 mmHg 92%
    09:00 +1°C° 0 mm 3 mps 754 mmHg 91%
    10:00 +2°C° 0 mm 2 mps 754 mmHg 89%
    11:00 +3°C° 0 mm 2 mps 754 mmHg 88%
    12:00 +3°C° 0 mm 2 mps 754 mmHg 87%
    13:00 +3°C° 0 mm 2 mps 754 mmHg 85%
    14:00 +5°C° 0 mm 1 mps 755 mmHg 83%
    15:00 +4°C° 0 mm 1 mps 754 mmHg 85%
    16:00 +4°C° 0 mm 1 mps 754 mmHg 87%
    17:00 +2°C° 0 mm 0 mps 754 mmHg 89%
    18:00 +2°C° 0 mm 1 mps 753 mmHg 90%
    19:00 +1°C° 0 mm 1 mps 753 mmHg 91%
    20:00 +1°C° 0 mm 1 mps 753 mmHg 91%
    21:00 -2°C° 0 mm 2 mps 752 mmHg 92%
    22:00 -2°C° 0 mm 2 mps 752 mmHg 92%
    23:00 -2°C° 0 mm 2 mps 751 mmHg 92%

    Tomorrow, 24 March, Sunday

    Time Temperature Precipitation Wind Pressure Humidity
    00:00 -2°C° 0 mm 3 mps 751 mmHg 91%
    01:00 -2°C° 0 mm 3 mps 750 mmHg 89%
    02:00 -2°C° 0 mm 4 mps 749 mmHg 87%
    03:00 -2°C° 0.1 mm 4 mps 748 mmHg 87%
    04:00 -2°C° 0.1 mm 4 mps 747 mmHg 86%
    05:00 -2°C° 0.1 mm 4 mps 747 mmHg 86%
    06:00 -1°C° 0.5 mm 4 mps 746 mmHg 87%
    07:00 -1°C° 0.5 mm 4 mps 745 mmHg 88%
    08:00 -1°C° 0.5 mm 4 mps 745 mmHg 90%
    09:00 0°C° 0.1 mm 4 mps 744 mmHg 90%
    10:00 0°C° 0.1 mm 4 mps 744 mmHg 90%
    11:00 +2°C° 0.1 mm 3 mps 743 mmHg 90%
    12:00 +1°C° 0.4 mm 4 mps 743 mmHg 86%
    13:00 +3°C° 0.4 mm 4 mps 743 mmHg 83%
    14:00 +3°C° 0.4 mm 5 mps 743 mmHg 79%
    15:00 +3°C° 0.2 mm 4 mps 743 mmHg 81%
    16:00 +2°C° 0.2 mm 3 mps 743 mmHg 82%
    17:00 +2°C° 0.2 mm 2 mps 743 mmHg 84%
    18:00 +1°C° 0 mm 3 mps 743 mmHg 84%
    19:00 0°C° 0 mm 3 mps 743 mmHg 83%
    20:00 -1°C° 0 mm 3 mps 743 mmHg 83%
    21:00 -1°C° 0 mm 3 mps 743 mmHg 84%
    22:00 -2°C° 0 mm 3 mps 743 mmHg 86%
    23:00 -2°C° 0 mm 3 mps 743 mmHg 88%

    Day after tomorrow, 25 March, Monday

    Time Temperature Precipitation Wind Pressure Humidity
    00:00 -4°C° 0 mm 3 mps 743 mmHg 88%
    01:00 -4°C° 0 mm 3 mps 743 mmHg 89%
    02:00 -4°C° 0 mm 3 mps 743 mmHg 89%
    03:00 -4°C° 0 mm 3 mps 743 mmHg 88%
    04:00 -4°C° 0 mm 3 mps 743 mmHg 88%
    05:00 -5°C° 0 mm 3 mps 743 mmHg 87%
    06:00 -4°C° 0 mm 3 mps 743 mmHg 84%
    07:00 -2°C° 0 mm 3 mps 743 mmHg 81%
    08:00 -1°C° 0 mm 3 mps 743 mmHg 77%
    09:00 0°C° 0 mm 3 mps 743 mmHg 76%
    10:00 +1°C° 0 mm 3 mps 743 mmHg 74%
    11:00 +2°C° 0 mm 3 mps 743 mmHg 73%
    12:00 +3°C° 0.1 mm 3 mps 743 mmHg 71%
    13:00 +3°C° 0.1 mm 4 mps 743 mmHg 69%
    14:00 +4°C° 0.1 mm 4 mps 743 mmHg 68%
    15:00 +3°C° 0.2 mm 3 mps 743 mmHg 72%
    16:00 +3°C° 0.2 mm 2 mps 743 mmHg 77%
    17:00 +3°C° 0.2 mm 2 mps 743 mmHg 82%
    18:00 +2°C° 0.1 mm 2 mps 743 mmHg 83%
    19:00 +1°C° 0.1 mm 2 mps 743 mmHg 84%
    20:00 -1°C° 0.1 mm 2 mps 743 mmHg 86%
    21:00 -1°C° 0 mm 2 mps 743 mmHg 84%
    22:00 -1°C° 0 mm 2 mps 743 mmHg 83%
    23:00 -2°C° 0 mm 2 mps 743 mmHg 82%

    26 March, Tuesday

    Time Temperature Precipitation Wind Pressure Humidity
    00:00 -2°C° 0 mm 2 mps 743 mmHg 81%
    01:00 -2°C° 0 mm 3 mps 743 mmHg 81%
    02:00 -2°C° 0 mm 3 mps 742 mmHg 80%
    03:00 -2°C° 0 mm 3 mps 742 mmHg 81%
    04:00 -2°C° 0 mm 3 mps 742 mmHg 82%
    05:00 -2°C° 0 mm 3 mps 741 mmHg 83%
    06:00 -1°C° 0 mm 3 mps 741 mmHg 81%
    07:00 0°C° 0 mm 3 mps 741 mmHg 80%
    08:00 0°C° 0 mm 3 mps 741 mmHg 79%
    09:00 +1°C° 0 mm 4 mps 741 mmHg 75%
    10:00 +3°C° 0 mm 4 mps 741 mmHg 72%
    11:00 +4°C° 0 mm 4 mps 740 mmHg 69%
    12:00 +4°C° 0.3 mm 4 mps 740 mmHg 69%
    13:00 +4°C° 0.3 mm 4 mps 740 mmHg 69%
    14:00 +4°C° 0.3 mm 3 mps 740 mmHg 69%
    15:00 +3°C° 0.3 mm 4 mps 740 mmHg 75%
    16:00 0°C° 0.3 mm 4 mps 740 mmHg 81%
    17:00 -1°C° 0.3 mm 4 mps 740 mmHg 86%
    18:00 -2°C° 0.6 mm 4 mps 740 mmHg 87%
    19:00 -4°C° 0.6 mm 5 mps 740 mmHg 87%
    20:00 -5°C° 0.6 mm 5 mps 740 mmHg 88%
    21:00 -5°C° 0.7 mm 5 mps 740 mmHg 88%
    22:00 -5°C° 0.7 mm 5 mps 740 mmHg 88%
    23:00 -6°C° 0.7 mm 5 mps 740 mmHg 88%

    27 March, Wednesday

    Time Temperature Precipitation Wind Pressure Humidity
    00:00 -6°C° 0.4 mm 6 mps 740 mmHg 86%
    01:00 -6°C° 0.4 mm 6 mps 740 mmHg 85%
    02:00 -7°C° 0.4 mm 7 mps 740 mmHg 84%
    03:00 -7°C° 0.4 mm 7 mps 740 mmHg 85%
    04:00 -8°C° 0.4 mm 7 mps 740 mmHg 86%
    05:00 -8°C° 0.4 mm 7 mps 740 mmHg 87%
    06:00 -7°C° 0.7 mm 7 mps 741 mmHg 86%
    07:00 -6°C° 0.7 mm 7 mps 741 mmHg 86%
    08:00 -6°C° 0.7 mm 7 mps 742 mmHg 85%
    09:00 -6°C° 0.4 mm 7 mps 743 mmHg 83%
    10:00 -4°C° 0.4 mm 7 mps 744 mmHg 81%
    11:00 -4°C° 0.4 mm 7 mps 744 mmHg 79%
    12:00 -4°C° 0.1 mm 7 mps 745 mmHg 78%
    13:00 -3°C° 0.1 mm 6 mps 746 mmHg 77%
    14:00 -3°C° 0.1 mm 6 mps 747 mmHg 76%
    15:00 -3°C° 0.1 mm 6 mps 748 mmHg 76%
    16:00 -4°C° 0.1 mm 5 mps 749 mmHg 76%
    17:00 -4°C° 0.1 mm 5 mps 749 mmHg 75%
    18:00 -3°C° 0 mm 4 mps 750 mmHg 77%
    19:00 -4°C° 0 mm 3 mps 751 mmHg 79%
    20:00 -4°C° 0 mm 3 mps 751 mmHg 80%
    21:00 -5°C° 0 mm 3 mps 751 mmHg 82%
    22:00 -6°C° 0 mm 3 mps 752 mmHg 84%
    23:00 -6°C° 0 mm 2 mps 752 mmHg 87%

    28 March, Thursday

    Time Temperature Precipitation Wind Pressure Humidity
    00:00 -6°C° 0 mm 2 mps 752 mmHg 87%
    01:00 -6°C° 0 mm 2 mps 752 mmHg 87%
    02:00 -7°C° 0 mm 2 mps 752 mmHg 88%
    03:00 -7°C° 0 mm 3 mps 752 mmHg 85%
    04:00 -6°C° 0 mm 3 mps 751 mmHg 83%
    05:00 -7°C° 0 mm 4 mps 751 mmHg 80%
    06:00 -5°C° 0.1 mm 4 mps 751 mmHg 80%
    07:00 -4°C° 0.1 mm 4 mps 751 mmHg 79%
    08:00 -4°C° 0.1 mm 5 mps 750 mmHg 79%
    09:00 -2°C° 0 mm 5 mps 750 mmHg 78%
    10:00 -1°C° 0 mm 5 mps 750 mmHg 78%
    11:00 0°C° 0 mm 5 mps 749 mmHg 78%
    12:00 0°C° 0.1 mm 5 mps 749 mmHg 78%
    13:00 0°C° 0.1 mm 4 mps 748 mmHg 78%
    14:00 0°C° 0.1 mm 4 mps 748 mmHg 78%
    15:00 0°C° 0.4 mm 4 mps 747 mmHg 80%
    16:00 0°C° 0.4 mm 4 mps 746 mmHg 82%
    17:00 0°C° 0.4 mm 4 mps 746 mmHg 84%
    18:00 0°C° 0.2 mm 4 mps 745 mmHg 84%
    19:00 0°C° 0.2 mm 4 mps 745 mmHg 85%
    20:00 0°C° 0.2 mm 4 mps 744 mmHg 85%
    21:00 0°C° 0 mm 4 mps 744 mmHg 85%
    22:00 -1°C° 0 mm 4 mps 744 mmHg 85%
    23:00 -1°C° 0 mm 4 mps 743 mmHg 85%
    Show more